User: anonymous   Login
Location: Coffee Creek Observatory
(38.8077°N, 94.7179°W)
Time: 16:20:28
(UTC-05:00)
Language:

Lacrosse 4 Rocket - Orbit

View from above orbital plane
View from above orbital plane
View from above satellite
View from above satellite

Ground track
Ground track

The orbit data is extracted from the following two-line orbital elements,

1 26474U 00047B   14297.46785683  .00002916  00000-0  27818-3 0  7764
2 26474 067.9971 348.5358 0064669 302.5399 056.9505 14.93260916770906
Epoch (UTC): 24 October 2014 11:13:42
Eccentricity: 0.0064669
inclination: 67.9971°
perigee height: 543 km
apogee height: 633 km
right ascension of ascending node: 348.5358°
argument of perigee: 302.5399°
revolutions per day: 14.93260916
mean anomaly at epoch: 56.9505°
orbit number at epoch: 77090

The dashed part of the orbit path shows where the satellite is in the earth's shadow,  

DLR